Wind_Speed
25 26 26 26 26 28 30 30 30 32 34 34 35 34 36 36 36 35 35 35 36 37 37 37 37 38 39 39 39 39 39 39 40 40 39 39 38 38 38 38 39 39 39
24 25 25 24 24 26 27 29 29 31 32 35 35 34 36 36 36 35 34 35 36 37 38 38 39 39 39 39 40 40 40 40 39 39 39 39 39 39 39 39 40 40 41
23 24 24 26 26 26 27 29 30 30 32 35 36 35 36 36 35 35 35 35 35 37 39 40 40 40 40 40 40 40 40 39 39 39 39 39 39 39 39 40 41 42 42
23 24 24 25 26 26 27 29 29 30 32 34 35 36 36 36 36 35 35 35 36 37 39 40 40 40 40 39 39 39 40 39 38 38 39 39 39 39 40 41 42 42 43
22 23 23 24 25 26 27 28 29 29 31 33 34 36 37 36 35 36 36 36 37 37 38 40 41 41 40 40 40 40 41 40 39 40 40 40 40 39 40 41 42 42 43
22 23 22 23 25 25 27 28 29 30 31 33 35 36 36 36 36 36 37 37 37 37 38 40 40 40 40 41 41 41 41 42 42 42 43 43 43 42 43 43 43 43 44
23 24 24 24 25 26 27 27 27 29 30 32 34 36 36 36 36 35 36 37 37 38 38 39 39 40 41 41 41 41 42 43 43 44 44 46 46 45 44 44 45 45 46
22 24 24 25 26 27 27 28 28 29 30 31 32 35 35 36 37 36 36 37 37 38 37 38 39 39 40 41 41 41 42 43 43 44 44 46 46 46 45 45 46 46 47
23 23 24 25 25 26 27 28 28 29 30 32 33 34 35 37 37 37 37 36 36 36 37 37 38 40 40 41 41 42 42 43 44 44 44 45 46 47 47 47 47 47 47
24 24 25 26 26 26 26 27 28 29 31 32 34 35 35 35 36 37 36 35 35 37 38 38 39 40 41 42 43 43 44 44 45 45 46 46 46 47 49 49 49 49 49
26 26 26 27 27 27 27 28 28 29 31 32 32 34 34 35 35 36 36 36 37 38 39 40 40 41 43 44 44 45 45 45 45 46 47 47 48 48 49 49 50 51 51
28 28 28 28 29 28 29 30 30 30 31 32 32 33 33 34 35 36 37 38 39 40 41 41 42 43 44 45 45 46 46 47 47 47 47 48 48 49 49 50 51 52 52
30 29 29 30 31 30 29 30 31 31 32 33 33 34 34 35 37 37 38 39 39 40 41 41 42 42 43 45 46 46 46 46 47 47 47 48 49 49 49 50 51 52 53
31 31 31 31 31 31 31 32 32 33 33 34 35 35 36 37 38 38 38 39 40 40 40 41 42 43 43 45 46 46 46 47 47 47 48 49 49 49 49 51 51 52 52
32 33 33 33 33 33 33 34 34 34 35 36 37 37 38 38 39 39 39 39 40 41 42 43 43 44 45 45 45 45 46 46 46 47 48 48 48 49 49 50 50 50 51
34 34 34 35 35 35 36 35 35 36 37 38 39 39 39 39 40 40 41 41 42 43 44 44 44 44 44 45 45 45 44 45 45 46 46 47 47 48 49 49 49 49 50
35 35 35 36 37 37 37 37 37 38 39 40 41 41 41 41 42 42 43 44 44 44 44 45 45 45 45 45 44 44 44 44 44 45 46 46 47 48 48 48 48 48 48
36 37 37 37 38 38 39 39 39 40 41 41 42 42 42 43 43 44 45 46 46 46 46 46 46 46 46 45 44 44 43 43 44 45 46 46 47 47 48 48 48 47 47
37 37 38 38 39 39 40 40 40 41 41 42 43 43 43 43 44 45 46 46 47 47 46 46 46 46 45 45 45 44 44 44 45 45 46 47 46 47 47 47 47 47 46
38 39 39 39 39 40 40 40 40 41 41 42 42 43 43 43 44 44 45 45 46 46 47 47 47 46 45 45 45 45 44 45 45 45 45 46 46 46 46 47 47 46 45
39 40 40 40 39 40 40 41 41 41 41 41 41 42 42 43 43 43 43 43 44 45 46 46 46 46 45 45 46 45 45 45 45 45 45 46 46 46 46 46 45 44 43
40 40 40 40 40 40 41 41 41 41 41 41 41 41 42 42 42 42 42 43 44 44 45 45 45 45 45 45 45 45 45 44 45 45 45 45 45 45 45 45 45 44 42
40 40 40 41 41 41 41 41 41 41 41 41 41 41 41 41 41 42 42 43 43 43 44 44 44 44 44 44 44 44 43 43 44 44 44 44 43 43 43 44 43 42 42
41 40 40 41 41 41 41 41 41 41 41 41 41 41 41 41 41 42 42 43 43 43 42 42 42 42 42 42 43 43 42 42 42 42 42 42 42 42 41 41 41 41 41
40 40 40 40 41 41 41 41 41 41 40 40 40 39 39 40 40 41 41 42 42 42 41 40 41 41 41 41 41 41 41 41 41 40 40 40 40 40 40 39 39 39 39
40 40 40 40 40 40 41 41 41 40 40 40 39 39 39 40 40 40 40 40 40 40 40 39 39 39 39 39 39 39 38 38 38 37 37 37 37 38 38 37 37 37 38
Wind_Direction
263 260 259 255 252 246 242 240 240 240 241 242 244 245 244 245 247 250 252 252 254 256 258 258 259 262 263 262 263 264 266 267 267 268 270 272 272 273 275 276 277 277 278
265 262 262 257 255 250 246 243 244 244 243 244 246 245 245 246 251 252 254 254 256 257 258 259 260 262 263 264 264 265 266 268 268 268 270 272 272 273 275 276 277 277 278
268 265 263 258 257 255 251 248 247 248 247 246 246 246 245 248 252 252 254 256 257 258 259 260 262 263 264 264 265 266 266 267 267 267 269 271 270 272 274 276 277 278 278
270 266 264 261 256 256 253 250 250 252 249 246 247 248 248 250 254 256 257 259 260 260 260 261 261 264 266 266 266 266 268 268 267 267 269 271 271 272 273 275 276 277 278
270 267 265 263 260 257 255 254 255 255 251 249 249 249 250 251 256 259 260 261 261 262 261 261 262 264 266 267 268 268 269 269 269 269 269 271 273 274 275 276 277 277 278
274 271 268 265 262 260 258 257 256 255 254 252 250 250 252 253 256 259 263 262 263 263 264 264 264 264 265 267 268 269 269 270 270 270 271 272 274 275 276 277 278 278 278
277 273 270 266 264 263 260 257 257 256 256 255 252 252 254 255 257 262 264 262 264 264 266 266 266 266 267 268 268 269 269 270 271 272 272 274 275 276 277 278 279 278 278
278 275 271 268 266 263 259 256 260 259 257 257 255 254 255 256 259 263 265 265 265 264 265 265 266 267 268 268 269 270 271 271 272 273 274 275 276 276 277 278 279 279 279
279 277 275 273 269 266 262 260 261 259 258 258 257 258 257 259 261 264 265 266 265 264 265 266 268 268 269 270 270 271 271 272 273 273 275 276 276 276 277 278 279 280 280
277 277 276 275 273 270 265 264 264 261 261 260 260 260 260 260 262 265 264 264 266 267 267 268 269 270 271 271 271 272 272 273 274 274 275 276 277 277 278 278 279 280 281
277 276 277 276 274 272 269 269 267 265 262 262 262 262 262 263 264 265 264 266 268 268 269 269 270 272 272 271 272 273 273 274 275 275 275 277 278 278 278 278 280 280 281
278 276 276 276 275 272 270 269 268 266 264 264 264 265 265 267 268 268 267 268 270 270 271 271 272 274 274 273 273 274 275 275 275 275 276 277 279 278 278 279 280 281 281
277 274 275 275 274 272 272 270 269 268 267 266 266 267 268 269 269 269 270 270 271 273 273 273 274 275 276 275 275 276 276 276 277 277 277 279 279 278 279 279 280 281 281
274 273 273 274 274 273 272 272 271 270 269 269 269 269 270 271 271 271 273 273 273 274 274 275 275 276 277 276 277 277 277 277 278 278 278 279 279 279 279 279 280 280 281
273 272 272 273 273 274 274 274 273 272 271 271 271 271 272 272 272 272 273 274 274 275 276 276 277 277 277 277 277 277 277 277 277 278 278 279 280 280 280 281 281 282 282
275 273 272 273 274 274 275 275 275 274 273 273 273 273 273 273 273 273 273 274 274 275 276 277 278 278 278 278 277 277 277 276 277 278 279 280 281 281 281 281 282 282 282
275 274 273 274 274 274 274 275 275 275 275 275 275 275 274 274 274 274 274 275 275 276 277 277 278 277 277 278 278 278 278 278 278 279 279 280 282 282 282 282 283 283 283
275 275 275 275 275 275 275 276 276 277 277 277 277 276 276 276 275 275 275 275 275 276 277 277 277 277 277 277 277 276 277 278 278 279 280 281 282 283 283 282 283 283 283
275 275 276 277 277 276 277 277 277 278 279 279 279 278 278 278 277 276 276 275 274 275 276 276 277 277 277 277 276 276 277 278 279 280 281 282 283 284 283 283 283 284 284
277 277 277 278 278 278 278 278 278 278 279 280 279 279 279 279 279 278 276 275 274 274 275 275 276 276 276 276 276 277 278 279 279 280 281 283 284 285 285 284 284 284 284
278 278 278 279 278 278 278 278 278 278 279 280 279 279 279 279 278 277 276 275 275 275 275 275 276 276 276 276 277 277 278 279 280 281 282 283 284 285 285 285 284 283 283
279 279 279 279 278 278 279 280 280 280 280 280 280 280 279 279 278 278 277 277 277 276 275 275 275 276 276 276 278 278 279 280 281 282 283 283 284 283 284 284 284 284 283
280 279 279 279 279 279 280 280 281 281 281 280 280 280 280 279 278 278 277 277 278 277 275 275 275 275 275 276 277 279 280 281 283 283 284 284 284 283 283 282 283 283 283
279 280 280 279 280 280 281 281 281 281 281 280 280 280 280 280 279 279 278 278 278 277 275 275 276 276 276 276 277 278 280 281 283 284 284 284 284 284 283 282 282 282 283
279 280 280 280 280 280 280 280 281 281 280 280 281 280 280 280 280 280 279 279 278 278 277 277 277 277 276 276 277 278 279 280 281 282 283 284 284 285 284 283 282 283 283
279 280 281 281 281 280 280 280 280 280 280 280 280 279 279 278 279 280 279 279 277 276 277 277 277 277 275 275 277 278 279 280 281 282 283 285 285 285 284 284 284 283 283
Height
5704 5704 5705 5706 5707 5709 5711 5714 5717 5720 5723 5728 5731 5734 5737 5741 5744 5746 5749 5750 5752 5753 5755 5756 5757 5758 5760 5761 5761 5763 5763 5764 5765 5766 5767 5767 5767 5767 5767 5767 5766 5766 5765
5698 5699 5700 5701 5702 5704 5706 5708 5711 5713 5717 5720 5723 5726 5730 5733 5736 5738 5740 5742 5743 5744 5746 5747 5748 5749 5750 5751 5752 5753 5754 5754 5755 5756 5757 5758 5758 5758 5757 5757 5757 5756 5755
5694 5694 5695 5695 5697 5698 5700 5703 5705 5707 5710 5713 5716 5719 5723 5725 5728 5730 5732 5733 5734 5735 5736 5738 5739 5739 5740 5741 5742 5743 5744 5744 5745 5745 5746 5747 5748 5749 5748 5747 5747 5746 5745
5689 5689 5689 5690 5691 5692 5694 5696 5698 5700 5703 5706 5708 5711 5715 5718 5720 5722 5723 5724 5725 5726 5727 5728 5729 5730 5730 5731 5732 5733 5734 5734 5735 5735 5736 5737 5737 5737 5738 5738 5737 5736 5735
5684 5684 5684 5685 5686 5687 5688 5690 5692 5694 5696 5699 5701 5704 5707 5710 5712 5713 5714 5715 5716 5717 5717 5718 5718 5719 5720 5721 5722 5722 5723 5724 5724 5725 5725 5725 5725 5725 5726 5727 5727 5725 5724
5679 5679 5679 5680 5681 5681 5683 5684 5686 5687 5689 5692 5694 5697 5699 5701 5703 5704 5705 5706 5707 5707 5708 5708 5708 5708 5709 5710 5711 5712 5713 5713 5714 5714 5714 5714 5714 5714 5714 5714 5715 5714 5713
5674 5674 5674 5675 5675 5676 5677 5678 5679 5681 5683 5684 5686 5689 5691 5693 5694 5696 5697 5697 5698 5698 5699 5698 5698 5698 5699 5700 5701 5702 5703 5703 5703 5703 5703 5703 5702 5702 5702 5702 5702 5702 5702
5669 5668 5669 5669 5670 5670 5671 5672 5673 5674 5676 5677 5679 5681 5682 5684 5685 5687 5688 5688 5688 5689 5689 5689 5689 5689 5689 5690 5691 5691 5692 5692 5692 5692 5692 5692 5691 5690 5690 5690 5690 5690 5690
5664 5663 5663 5664 5664 5664 5665 5666 5667 5668 5669 5670 5672 5673 5674 5676 5677 5678 5679 5679 5679 5679 5679 5679 5679 5679 5679 5680 5680 5681 5681 5681 5681 5681 5680 5680 5679 5678 5678 5677 5676 5676 5676
5658 5658 5658 5658 5658 5658 5658 5659 5660 5661 5661 5663 5664 5665 5666 5667 5668 5669 5669 5670 5670 5669 5669 5669 5669 5669 5669 5669 5669 5670 5670 5670 5669 5669 5668 5668 5667 5666 5665 5665 5664 5662 5662
5652 5652 5652 5652 5651 5652 5652 5652 5652 5653 5654 5655 5656 5657 5657 5658 5659 5659 5659 5660 5660 5659 5659 5659 5659 5659 5659 5659 5658 5658 5658 5657 5657 5657 5656 5656 5654 5654 5653 5652 5650 5649 5648
5645 5645 5645 5645 5644 5644 5645 5645 5645 5645 5646 5647 5647 5648 5648 5649 5649 5649 5649 5649 5649 5649 5649 5649 5648 5648 5647 5647 5646 5646 5646 5645 5645 5644 5643 5643 5641 5641 5639 5638 5637 5635 5634
5639 5638 5638 5637 5637 5637 5637 5637 5637 5637 5638 5638 5638 5639 5639 5639 5639 5639 5639 5639 5639 5639 5638 5637 5636 5636 5635 5635 5634 5634 5633 5632 5632 5631 5630 5629 5628 5627 5626 5624 5623 5622 5619
5631 5631 5630 5630 5629 5629 5629 5629 5629 5629 5629 5629 5629 5629 5629 5629 5629 5629 5629 5628 5628 5628 5627 5626 5625 5624 5623 5623 5622 5621 5620 5620 5619 5618 5617 5616 5615 5613 5612 5610 5609 5607 5605
5623 5623 5622 5622 5621 5621 5621 5620 5620 5620 5620 5619 5619 5619 5619 5618 5618 5618 5618 5618 5617 5616 5615 5614 5613 5612 5611 5610 5609 5608 5607 5607 5606 5605 5604 5603 5601 5599 5598 5596 5594 5593 5591
5615 5614 5614 5613 5613 5612 5611 5611 5610 5610 5609 5609 5609 5608 5608 5608 5607 5607 5607 5606 5606 5605 5604 5602 5601 5600 5598 5597 5596 5595 5595 5594 5593 5593 5591 5590 5588 5587 5585 5583 5581 5579 5577
5606 5605 5605 5604 5603 5602 5602 5601 5600 5599 5599 5598 5598 5597 5597 5596 5596 5595 5595 5594 5594 5593 5591 5590 5589 5588 5586 5585 5584 5583 5582 5582 5581 5580 5579 5577 5576 5573 5572 5570 5568 5565 5563
5597 5596 5595 5594 5593 5592 5591 5590 5589 5588 5588 5587 5586 5585 5585 5584 5584 5583 5582 5582 5581 5580 5579 5578 5576 5575 5574 5572 5571 5570 5570 5569 5568 5567 5566 5564 5563 5560 5559 5557 5555 5552 5550
5587 5586 5585 5584 5582 5581 5580 5579 5578 5577 5576 5575 5574 5573 5572 5571 5571 5570 5569 5568 5567 5567 5566 5565 5564 5562 5561 5560 5559 5558 5557 5557 5556 5554 5553 5551 5550 5548 5546 5544 5542 5540 5538
5576 5575 5574 5573 5572 5570 5569 5568 5567 5566 5564 5563 5562 5560 5559 5558 5557 5556 5555 5554 5554 5553 5552 5552 5550 5549 5548 5547 5546 5546 5545 5545 5544 5542 5540 5538 5536 5534 5532 5530 5528 5527 5525
5565 5564 5563 5562 5561 5559 5558 5557 5556 5554 5553 5551 5550 5549 5547 5546 5545 5544 5543 5541 5540 5540 5539 5539 5538 5536 5535 5535 5534 5533 5532 5531 5530 5529 5528 5526 5523 5521 5519 5517 5515 5513 5511
5554 5553 5552 5550 5549 5548 5547 5546 5544 5543 5541 5540 5538 5537 5535 5534 5532 5531 5530 5529 5527 5527 5526 5525 5525 5524 5523 5522 5521 5520 5519 5518 5517 5516 5514 5513 5511 5509 5506 5504 5502 5500 5498
5543 5542 5540 5539 5538 5536 5535 5533 5532 5530 5529 5528 5526 5525 5523 5522 5520 5518 5517 5516 5515 5514 5513 5512 5512 5511 5510 5509 5508 5507 5506 5505 5504 5503 5501 5500 5498 5496 5494 5492 5490 5488 5486
5532 5530 5529 5527 5526 5524 5523 5521 5520 5518 5517 5516 5514 5512 5511 5510 5508 5507 5505 5504 5502 5501 5500 5499 5499 5498 5498 5497 5496 5495 5494 5493 5492 5490 5489 5487 5485 5483 5481 5479 5478 5476 5475
5520 5519 5517 5516 5514 5513 5511 5509 5508 5506 5505 5503 5502 5500 5498 5497 5496 5494 5493 5492 5490 5489 5488 5487 5486 5486 5486 5485 5484 5483 5483 5481 5480 5479 5478 5476 5474 5472 5470 5468 5467 5465 5464
5508 5507 5506 5504 5502 5501 5499 5498 5496 5494 5492 5491 5490 5488 5487 5485 5484 5482 5481 5480 5479 5478 5476 5475 5475 5474 5474 5473 5473 5472 5471 5470 5468 5467 5466 5465 5463 5461 5459 5457 5456 5454 5453